This is the latest recevied weather packets stored in our database for station/object AB8DT-10. If no packets are shown the sender has not sent any weather packets the latest 10 day(s).
| Time | Temp. | Humidity | Pressure | Rain* | Wind** | Luminosity | Snow |
|---|---|---|---|---|---|---|---|
| 1777905112 | 17.22° C | 50% | 0 hPa | 0 mm | - | - | - |
| 1777904812 | 17.22° C | 52% | 0 hPa | 0 mm | - | - | - |
| 1777904512 | 16.67° C | 53% | 0 hPa | 0 mm | - | - | - |
| 1777904212 | 16.67° C | 53% | 0 hPa | 0 mm | - | - | - |
| 1777903912 | 16.67° C | 57% | 0 hPa | 0 mm | - | - | - |
| 1777903612 | 16.11° C | 56% | 0 hPa | 0 mm | - | - | - |
| 1777903312 | 15.56° C | 56% | 0 hPa | 0 mm | - | - | - |
| 1777903012 | 15.56° C | 57% | 0 hPa | 0 mm | - | - | - |
| 1777902712 | 15.56° C | 58% | 0 hPa | 0 mm | - | - | - |
| 1777902412 | 15° C | 60% | 0 hPa | 0 mm | - | - | - |
| 1777902112 | 15° C | 59% | 0 hPa | 0 mm | - | - | - |
| 1777901812 | 14.44° C | 61% | 0 hPa | 0 mm | - | - | - |
| 1777901512 | 14.44° C | 62% | 0 hPa | 0 mm | - | - | - |
| 1777901212 | 13.89° C | 62% | 0 hPa | 0 mm | - | - | - |
| 1777900912 | 13.89° C | 62% | 0 hPa | 0 mm | - | - | - |
| 1777900613 | 13.89° C | 64% | 0 hPa | 0 mm | - | - | - |
| 1777900312 | 13.33° C | 65% | 0 hPa | 0 mm | - | - | - |
| 1777900013 | 13.33° C | 65% | 0 hPa | 0 mm | - | - | - |
| 1777899713 | 13.33° C | 66% | 0 hPa | 0 mm | - | - | - |
| 1777899413 | 13.33° C | 69% | 0 hPa | 0 mm | - | - | - |
| 1777899113 | 12.78° C | 69% | 0 hPa | 0 mm | - | - | - |
| 1777898812 | 12.22° C | 70% | 0 hPa | 0 mm | - | - | - |
| 1777898513 | 12.22° C | 71% | 0 hPa | 0 mm | - | - | - |
| 1777898213 | 11.67° C | 73% | 0 hPa | 0 mm | - | - | - |
| 1777897913 | 11.11° C | 74% | 0 hPa | 0 mm | - | - | - |
* Rain latest hour (hover to see other rain measurements)
** Current wind speed in m/s (hover to see current wind gust speed)